YUNHAI-2 6 (43915 NORAD) Tracking and Keplerian Element Data

This shows tracking and keplerian element data for the satellite.

Feedback or suggestion? Click here.




ElementValue
Catalog43915
NameYUNHAI-2 6
Epoch Orbit303
Epoch Day20.90453568
Epoch Year2019
RAAN102.3101
Inclination50.0112
Eccentricity0.0005101
Argument of Perigee296.7662
Mean Anonmoly63.2693
Mean Motion13.43623337
Decay Rate-1.32E-06
L11 43915U 18112G 19020.90453568 -.00000132 00000-0 -55264-5 0 9992
L22 43915 50.0112 102.3101 0005101 296.7662 63.2693 13.43623337 3036

Live tracking and technical data element details for YUNHAI-2 6 (NORAD 43915). YUNHAI-2 6 can be tracked NOW for your location showing map with azimuth and elevation plus other details from your city location.

Track the satellite on the map from your city or location and see movement details for azimuth, elevation, latitude, longitude, range, height, and movement on the map or in text.







IsCatalogInMostPopularTable: catalog: 43915, numindb: 17
Update: records affected: 1



GetName: 43915 YUNHAI-2 6

Hit Count: updated at: Wed, 23 Jan 2019 02:48:15 GMT